SCP
1 0 0 0 1 1 1 1 0 0 0 0 0 0 0 0 0 0 0 -0 -0 0 -0 -0 -0 -0 0 0 -0 -0 -0 0
1 1 1 1 1 1 1 1 1 1 0 0 0 0 0 0 0 0 -0 -0 -0 0 0 -0 -0 0 0 0 0 -0 -0 -0
1 1 1 1 1 1 1 1 0 0 0 0 0 1 0 0 0 0 -0 -0 -0 0 0 0 0 0 0 0 -0 0 -0 0
1 1 1 1 1 1 1 1 1 1 1 1 1 1 0 0 0 0 0 0 0 0 0 0 0 0 0 0 0 0 0 0
1 2 2 2 2 2 2 2 2 2 1 1 1 1 1 0 0 0 0 0 0 0 0 0 0 0 0 0 0 0 0 0
2 2 2 2 3 2 2 2 2 2 2 1 1 1 0 0 0 0 0 0 0 0 0 0 0 0 0 0 0 0 0 0
2 2 2 2 3 2 2 2 2 2 1 1 1 1 0 0 0 0 0 0 0 0 0 0 0 0 0 0 0 0 0 0
2 1 3 3 3 2 2 2 2 1 1 1 2 1 0 0 0 0 0 0 0 0 0 0 0 0 0 0 0 0 0 0
1 1 2 3 3 2 2 2 2 2 1 1 1 1 1 0 0 0 0 0 0 0 0 0 0 0 0 0 0 0 0 0
1 2 1 2 3 3 3 3 2 3 2 2 1 1 0 0 0 0 0 0 0 0 0 0 0 0 0 0 0 0 0 0
0 1 1 1 2 5 3 3 3 3 2 2 1 1 0 0 0 0 0 0 0 0 0 0 0 0 0 0 0 0 0 0
0 1 1 2 4 6 7 5 4 3 3 2 1 2 1 0 0 0 0 0 0 0 0 0 0 0 0 0 0 0 0 0
1 1 2 3 3 4 6 5 3 3 3 1 1 1 1 1 0 0 0 0 0 0 0 0 0 0 0 0 0 0 0 0
1 0 1 2 3 3 4 4 4 4 4 3 2 1 2 1 0 0 0 0 0 0 0 0 0 0 0 0 0 0 0 0
1 1 1 1 2 4 4 4 4 4 3 3 3 2 2 1 0 0 0 0 0 0 0 0 0 0 0 0 0 0 0 0
0 2 1 2 3 4 3 4 3 3 2 3 4 3 2 2 1 0 0 0 0 0 0 0 0 0 0 0 0 0 0 0
0 0 2 2 3 3 4 3 4 4 4 3 2 3 3 3 2 0 0 0 0 0 0 0 0 0 0 0 0 0 0 0
0 0 0 0 1 1 1 3 3 3 3 3 3 3 3 2 2 1 0 0 0 0 0 0 0 0 0 0 0 0 0 0
0 0 0 0 0 0 1 1 1 1 3 3 3 3 3 2 2 2 0 0 0 0 0 0 0 0 0 0 0 0 0 0
0 0 0 0 0 0 1 2 2 2 2 3 2 2 2 2 2 2 1 0 0 0 0 0 0 0 0 0 0 0 0 0
Wind_Speed_500mb
27 49 55 64 68 65 63 61 59 57 56 54 53 50 47 42 38 34 30 28 29 30 31 35 41 47 46 41 29 26 16 11
26 47 60 65 68 66 64 61 58 56 56 56 54 53 50 45 40 35 31 30 29 31 33 35 40 45 45 38 26 19 10 12
19 46 63 67 66 67 65 63 60 58 56 58 58 57 54 49 43 37 34 33 31 30 32 36 39 43 48 40 28 18 8 12
30 36 61 72 70 69 68 66 66 65 64 64 65 62 58 54 47 41 38 36 34 33 33 35 39 45 52 46 33 22 12 5
45 41 49 71 78 75 74 71 66 66 67 67 68 66 65 61 56 50 44 43 40 40 40 39 42 48 54 50 37 28 24 14
53 52 50 60 76 76 78 77 76 75 74 74 75 75 75 70 64 56 53 50 47 44 44 43 45 48 50 48 37 30 26 18
61 60 57 60 72 77 80 80 80 77 73 75 79 82 82 76 70 63 58 55 52 49 47 49 49 51 49 44 39 35 28 20
65 70 66 65 73 76 80 81 81 79 78 79 81 86 86 81 75 68 63 59 56 53 51 52 52 54 49 45 41 38 31 27
69 75 75 76 76 77 77 78 82 84 83 79 80 85 86 82 76 73 67 63 61 58 55 54 53 52 54 46 47 41 36 35
73 77 81 83 82 82 78 76 79 83 87 82 81 88 89 84 79 77 71 69 68 65 64 64 58 53 57 50 52 41 40 39
84 78 85 84 87 88 80 78 77 85 86 84 84 90 91 89 84 78 74 71 74 71 69 70 67 58 57 51 52 45 45 40
84 80 89 87 83 94 89 82 78 77 82 86 85 89 93 90 86 83 77 73 74 73 71 73 71 64 61 56 57 50 50 44
79 86 93 89 92 98 102 98 97 84 82 82 84 95 96 89 87 83 79 79 79 77 73 75 71 68 65 55 54 48 50 47
80 82 90 93 93 94 93 106 98 100 92 88 88 91 104 98 92 91 88 85 83 81 80 81 76 79 74 67 62 55 50 50
77 82 89 98 95 87 91 97 104 101 99 102 95 88 93 104 102 99 94 91 90 85 88 89 92 88 85 61 42 39 61 61
78 71 83 89 93 94 93 100 105 111 118 114 107 99 94 95 105 104 100 94 96 88 91 94 97 97 91 88 67 49 58 47
83 64 76 76 85 91 93 92 99 98 102 105 109 113 102 98 99 106 106 101 101 94 89 103 104 102 105 99 84 59 57 53
44 45 44 66 84 78 81 82 78 79 84 93 95 100 113 106 109 112 112 107 106 100 94 93 109 110 107 109 112 101 85 73
28 24 20 22 31 49 72 73 78 82 89 92 98 91 91 96 98 106 111 114 115 111 103 103 106 113 113 116 118 116 99 94
30 21 14 30 27 27 39 37 68 77 80 84 86 92 97 90 90 98 107 110 115 115 112 108 107 109 116 117 121 120 120 110
Wind_Direction_500mb
188 181 186 183 184 186 186 186 189 190 190 187 186 183 180 177 173 171 173 160 157 155 150 148 144 145 143 140 164 162 179 218
202 188 188 192 189 190 191 192 194 196 197 195 194 190 188 185 180 180 178 170 168 164 158 155 150 150 145 143 155 189 191 144
242 197 196 196 196 195 195 197 199 202 203 202 200 197 194 191 188 187 182 180 176 171 166 161 156 152 149 146 168 198 165 126
251 225 201 200 200 201 199 199 201 204 205 204 204 201 199 196 193 192 189 187 182 176 175 170 163 156 154 147 177 187 214 219
246 227 213 202 203 203 203 201 202 205 208 208 208 202 200 198 196 194 194 191 190 185 180 180 171 164 157 154 184 189 217 229
239 227 215 207 205 204 206 203 202 204 205 205 205 203 206 203 203 200 197 197 195 195 189 185 178 170 164 163 192 197 214 226
230 227 220 210 210 205 208 208 206 206 204 204 206 206 207 205 206 205 202 204 200 200 195 190 185 175 173 168 195 209 218 225
233 221 220 214 215 207 208 210 208 206 205 205 206 207 209 207 208 209 207 207 205 204 202 198 189 181 183 171 203 215 221 232
235 223 217 213 216 208 207 208 209 206 204 207 203 208 213 212 211 211 211 211 208 204 201 202 196 184 190 179 208 217 218 231
235 223 218 211 210 208 206 208 209 209 207 207 205 209 216 215 215 215 215 213 210 207 202 200 200 194 189 185 209 217 224 230
230 223 218 210 207 207 206 208 209 209 211 211 208 209 215 219 216 217 217 213 213 209 203 204 198 198 197 193 203 220 228 230
228 224 216 211 205 205 204 204 207 210 214 216 211 212 213 217 219 220 218 213 212 209 206 200 202 198 198 199 200 218 230 233
215 221 212 208 209 201 202 204 204 206 213 215 213 211 209 210 216 221 219 217 216 211 205 199 196 200 194 197 197 217 227 234
213 223 215 213 216 209 210 205 207 207 209 214 216 208 210 208 217 221 222 219 216 211 207 197 199 200 198 190 190 201 215 230
214 217 219 214 214 217 210 206 206 209 212 216 215 214 211 213 217 220 220 225 221 213 210 206 200 199 207 191 184 204 202 212
209 209 214 220 216 216 217 204 203 207 211 214 217 219 219 218 218 221 222 227 221 221 216 211 208 200 202 211 209 200 188 199
208 200 210 219 220 220 217 217 211 209 211 217 218 218 218 220 219 223 223 226 227 223 220 213 213 213 208 205 214 212 210 200
167 169 169 203 216 223 222 222 222 218 218 217 220 219 215 218 224 221 226 227 227 228 228 225 218 218 218 215 215 215 215 211
141 167 169 176 183 206 225 226 216 227 223 221 221 219 215 221 222 224 226 228 230 233 231 229 224 222 219 215 220 225 226 226
115 120 134 208 208 218 223 217 225 227 229 227 228 233 233 227 232 228 226 229 231 234 236 232 224 226 227 222 224 229 230 232
Wind_Speed_850mb
27 49 55 64 68 65 63 61 59 57 56 54 53 50 47 42 38 34 30 28 29 30 31 35 41 47 46 41 29 26 16 11
26 47 60 65 68 66 64 61 58 56 56 56 54 53 50 45 40 35 31 30 29 31 33 35 40 45 45 38 26 19 10 12
19 46 63 67 66 67 65 63 60 58 56 58 58 57 54 49 43 37 34 33 31 30 32 36 39 43 48 40 28 18 8 12
30 36 61 72 70 69 68 66 66 65 64 64 65 62 58 54 47 41 38 36 34 33 33 35 39 45 52 46 33 22 12 5
45 41 49 71 78 75 74 71 66 66 67 67 68 66 65 61 56 50 44 43 40 40 40 39 42 48 54 50 37 28 24 14
53 52 50 60 76 76 78 77 76 75 74 74 75 75 75 70 64 56 53 50 47 44 44 43 45 48 50 48 37 30 26 18
61 60 57 60 72 77 80 80 80 77 73 75 79 82 82 76 70 63 58 55 52 49 47 49 49 51 49 44 39 35 28 20
65 70 66 65 73 76 80 81 81 79 78 79 81 86 86 81 75 68 63 59 56 53 51 52 52 54 49 45 41 38 31 27
69 75 75 76 76 77 77 78 82 84 83 79 80 85 86 82 76 73 67 63 61 58 55 54 53 52 54 46 47 41 36 35
73 77 81 83 82 82 78 76 79 83 87 82 81 88 89 84 79 77 71 69 68 65 64 64 58 53 57 50 52 41 40 39
84 78 85 84 87 88 80 78 77 85 86 84 84 90 91 89 84 78 74 71 74 71 69 70 67 58 57 51 52 45 45 40
84 80 89 87 83 94 89 82 78 77 82 86 85 89 93 90 86 83 77 73 74 73 71 73 71 64 61 56 57 50 50 44
79 86 93 89 92 98 102 98 97 84 82 82 84 95 96 89 87 83 79 79 79 77 73 75 71 68 65 55 54 48 50 47
80 82 90 93 93 94 93 106 98 100 92 88 88 91 104 98 92 91 88 85 83 81 80 81 76 79 74 67 62 55 50 50
77 82 89 98 95 87 91 97 104 101 99 102 95 88 93 104 102 99 94 91 90 85 88 89 92 88 85 61 42 39 61 61
78 71 83 89 93 94 93 100 105 111 118 114 107 99 94 95 105 104 100 94 96 88 91 94 97 97 91 88 67 49 58 47
83 64 76 76 85 91 93 92 99 98 102 105 109 113 102 98 99 106 106 101 101 94 89 103 104 102 105 99 84 59 57 53
44 45 44 66 84 78 81 82 78 79 84 93 95 100 113 106 109 112 112 107 106 100 94 93 109 110 107 109 112 101 85 73
28 24 20 22 31 49 72 73 78 82 89 92 98 91 91 96 98 106 111 114 115 111 103 103 106 113 113 116 118 116 99 94
30 21 14 30 27 27 39 37 68 77 80 84 86 92 97 90 90 98 107 110 115 115 112 108 107 109 116 117 121 120 120 110
Wind_Direction_850mb
188 181 186 183 184 186 186 186 189 190 190 187 186 183 180 177 173 171 173 160 157 155 150 148 144 145 143 140 164 162 179 218
202 188 188 192 189 190 191 192 194 196 197 195 194 190 188 185 180 180 178 170 168 164 158 155 150 150 145 143 155 189 191 144
242 197 196 196 196 195 195 197 199 202 203 202 200 197 194 191 188 187 182 180 176 171 166 161 156 152 149 146 168 198 165 126
251 225 201 200 200 201 199 199 201 204 205 204 204 201 199 196 193 192 189 187 182 176 175 170 163 156 154 147 177 187 214 219
246 227 213 202 203 203 203 201 202 205 208 208 208 202 200 198 196 194 194 191 190 185 180 180 171 164 157 154 184 189 217 229
239 227 215 207 205 204 206 203 202 204 205 205 205 203 206 203 203 200 197 197 195 195 189 185 178 170 164 163 192 197 214 226
230 227 220 210 210 205 208 208 206 206 204 204 206 206 207 205 206 205 202 204 200 200 195 190 185 175 173 168 195 209 218 225
233 221 220 214 215 207 208 210 208 206 205 205 206 207 209 207 208 209 207 207 205 204 202 198 189 181 183 171 203 215 221 232
235 223 217 213 216 208 207 208 209 206 204 207 203 208 213 212 211 211 211 211 208 204 201 202 196 184 190 179 208 217 218 231
235 223 218 211 210 208 206 208 209 209 207 207 205 209 216 215 215 215 215 213 210 207 202 200 200 194 189 185 209 217 224 230
230 223 218 210 207 207 206 208 209 209 211 211 208 209 215 219 216 217 217 213 213 209 203 204 198 198 197 193 203 220 228 230
228 224 216 211 205 205 204 204 207 210 214 216 211 212 213 217 219 220 218 213 212 209 206 200 202 198 198 199 200 218 230 233
215 221 212 208 209 201 202 204 204 206 213 215 213 211 209 210 216 221 219 217 216 211 205 199 196 200 194 197 197 217 227 234
213 223 215 213 216 209 210 205 207 207 209 214 216 208 210 208 217 221 222 219 216 211 207 197 199 200 198 190 190 201 215 230
214 217 219 214 214 217 210 206 206 209 212 216 215 214 211 213 217 220 220 225 221 213 210 206 200 199 207 191 184 204 202 212
209 209 214 220 216 216 217 204 203 207 211 214 217 219 219 218 218 221 222 227 221 221 216 211 208 200 202 211 209 200 188 199
208 200 210 219 220 220 217 217 211 209 211 217 218 218 218 220 219 223 223 226 227 223 220 213 213 213 208 205 214 212 210 200
167 169 169 203 216 223 222 222 222 218 218 217 220 219 215 218 224 221 226 227 227 228 228 225 218 218 218 215 215 215 215 211
141 167 169 176 183 206 225 226 216 227 223 221 221 219 215 221 222 224 226 228 230 233 231 229 224 222 219 215 220 225 226 226
115 120 134 208 208 218 223 217 225 227 229 227 228 233 233 227 232 228 226 229 231 234 236 232 224 226 227 222 224 229 230 232